This is the latest recevied weather packets stored in our database for station/object KC3JUG-13. If no packets are shown the sender has not sent any weather packets the latest 10 day(s).
| Time | Temp. | Humidity | Pressure | Rain* | Wind** | Luminosity | Snow |
|---|---|---|---|---|---|---|---|
| 1777663246 | 15.56° C | 48% | 1014.1 hPa | 0 mm | - | - | - |
| 1777662466 | 15.56° C | 50% | 1014.3 hPa | 0 mm | - | - | - |
| 1777661687 | 15° C | 50% | 1014.3 hPa | 0 mm | - | - | - |
| 1777660907 | 15° C | 50% | 1014.5 hPa | 0 mm | - | - | - |
| 1777660126 | 15° C | 53% | 1014.7 hPa | 0 mm | - | - | - |
| 1777659347 | 14.44° C | 54% | 1015 hPa | 0 mm | - | - | - |
| 1777658567 | 13.89° C | 53% | 1015 hPa | 0 mm | - | - | - |
| 1777657787 | 13.89° C | 55% | 1015 hPa | 0 mm | - | - | - |
| 1777657007 | 13.89° C | 55% | 1015 hPa | 0 mm | - | - | - |
| 1777656227 | 13.33° C | 55% | 1015.1 hPa | 0 mm | - | - | - |
| 1777655447 | 12.78° C | 54% | 1015.2 hPa | 0 mm | - | - | - |
| 1777654667 | 12.78° C | 55% | 1015.3 hPa | 0 mm | - | - | - |
| 1777653887 | 12.22° C | 55% | 1015.4 hPa | 0 mm | - | - | - |
| 1777653107 | 12.22° C | 54% | 1015.6 hPa | 0 mm | - | - | - |
| 1777652327 | 11.67° C | 53% | 1015.7 hPa | 0 mm | - | - | - |
| 1777651547 | 11.67° C | 54% | 1015.9 hPa | 0 mm | - | - | - |
| 1777650767 | 11.67° C | 57% | 1016.1 hPa | 0 mm | - | - | - |
| 1777649987 | 11.11° C | 56% | 1016.2 hPa | 0 mm | - | - | - |
| 1777649207 | 11.11° C | 55% | 1016.3 hPa | 0 mm | - | - | - |
| 1777648427 | 11.11° C | 56% | 1016.5 hPa | 0 mm | - | - | - |
| 1777647647 | 10.56° C | 59% | 1016.6 hPa | 0 mm | - | - | - |
| 1777646867 | 10.56° C | 58% | 1016.6 hPa | 0 mm | - | - | - |
| 1777646087 | 10° C | 60% | 1016.4 hPa | 0 mm | - | - | - |
| 1777645307 | 10° C | 61% | 1016.4 hPa | 0 mm | - | - | - |
| 1777644527 | 9.44° C | 66% | 1016.6 hPa | 0 mm | - | - | - |
* Rain latest hour (hover to see other rain measurements)
** Current wind speed in m/s (hover to see current wind gust speed)